Flag for Tajikistan Weather past 2 weeks in Dushanbe, Tajikistan

50 °F


Feels Like: 50 °F
Forecast: 43 / 62 °F
Wind: 1 mph from North

Location: Dushanbe Airport

Current Time: Nov 29, 2015 at 12:50:59 PM

Latest Report: Nov 29, 2015 at 11:30 AM

Visibility: 1 mi

Pressure: 30.30 "Hg (27.41 "Hg at 832m altitude)

Humidity: 58%

Dew point: 36 °F

Location of DushanbeLocation

Historic Weather in Dushanbe — Graph


Dushanbe temperature yesterday

Maximum temperature yesterday: 64 °F (at 2:00 PM)
Minimum temperature yesterday: 39 °F (at 7:00 AM)
Average temperature yesterday: 50 °F

Past Weeks' High & Low Weather Summary

High70 °F (Nov 18, 2:00 PM)100% (Nov 15, 10:00 AM)30.42 "Hg (Nov 15, 10:00 AM)
Low32 °F (Nov 16, 3:30 AM)19% (Nov 27, 1:30 PM)29.95 "Hg (Nov 15, 3:00 AM)
Average48 °F71%30.20 "Hg
* Reported Nov 14 11:30 AM — Nov 29 11:30 AM, Dushanbe, Weather by CustomWeather, © 2015

Note: Actual official high and low records may vary slightly from our data, if they occured in-between our weather recording intervals... More about our weather records


Dushanbe weather history for previous 24 hours

Time TempWeatherWind HumidityBarometerVisibility
11:30 AM
Sun, Nov 29
50 °FClear.1 mph58%30.30 "Hg1 mi
11:00 AM48 °FCool.1 mph62%30.30 "Hg1 mi
10:00 AM45 °FSleet. Cloudy.1 mph71%30.30 "Hg1 mi
9:30 AM45 °FSleet. Cloudy.No wind66%30.30 "Hg1 mi
9:00 AM41 °FFog.1 mph81%30.30 "Hg1 mi
8:30 AM37 °FSleet. Cloudy.No wind81%30.27 "Hg1 mi
8:00 AM37 °FSleet. Fog.3 mph81%30.27 "Hg1 mi
7:30 AM39 °FFog.3 mph75%30.24 "Hg2 mi
7:00 AM37 °FFog.1 mph81%30.24 "Hg3 mi
6:30 AM39 °FFog.1 mph81%30.21 "Hg3 mi
6:00 AM39 °FClear.No wind81%30.21 "Hg4 mi
5:30 AM37 °FClear.1 mph81%30.21 "Hg4 mi
5:00 AM39 °FClear.1 mph75%30.18 "Hg4 mi
4:30 AM41 °FClear.1 mph76%30.18 "Hg4 mi
4:00 AM39 °FClear.No wind81%30.18 "Hg4 mi
3:00 AM41 °FClear.3 mph76%30.18 "Hg4 mi
2:30 AM43 °FClear.1 mph71%30.18 "Hg4 mi
2:00 AM43 °FClear.1 mph71%30.18 "Hg4 mi
1:30 AM43 °FFog.No wind76%30.15 "Hg3 mi
1:00 AM41 °FFog.1 mph76%30.15 "Hg3 mi
12:30 AM45 °FFog.No wind71%30.15 "Hg3 mi
12:00 AM45 °FFog.No wind71%30.15 "Hg3 mi
11:30 PM
Sat, Nov 28
43 °FFog.3 mph76%30.15 "Hg3 mi
11:00 PM45 °FFog.1 mph71%30.15 "Hg3 mi
10:30 PM46 °FClear.1 mph66%30.15 "Hg2 mi
10:00 PM46 °FClear.No wind66%30.12 "Hg3 mi
9:30 PM46 °FClear.1 mph66%30.12 "Hg2 mi
9:00 PM48 °FClear.No wind66%30.09 "Hg2 mi
8:30 PM50 °FClear.1 mph62%30.09 "Hg2 mi
8:00 PM50 °FClear.3 mph62%30.09 "Hg2 mi
7:30 PM50 °FClear.1 mph62%30.07 "Hg2 mi
7:00 PM54 °FClear.No wind54%30.07 "Hg2 mi
6:30 PM54 °FClear.1 mph54%30.04 "Hg2 mi
6:00 PM54 °FClear.1 mph54%30.04 "Hg2 mi
5:30 PM57 °FClear.1 mph44%30.04 "Hg2 mi
5:00 PM59 °FClear.No wind42%30.01 "Hg1 mi
4:30 PM59 °FClear.1 mph42%30.01 "Hg2 mi
4:00 PM61 °FClear.1 mph36%30.01 "Hg2 mi
3:30 PM61 °FClear.1 mph45%30.01 "Hg2 mi
3:00 PM63 °FClear.No wind39%30.01 "Hg3 mi
2:30 PM63 °FClear.No wind30%30.01 "Hg2 mi
2:00 PM64 °FClear.No wind28%30.01 "Hg2 mi
1:30 PM63 °FClear.1 mph30%30.01 "Hg4 mi
1:00 PM63 °FClear.1 mph27%30.04 "Hg4 mi
12:30 PM61 °FClear.1 mph31%30.04 "Hg2 mi
12:00 PM59 °FClear.1 mph39%30.07 "Hg2 mi
Weather by CustomWeather, © 2015

See weather overviewHow to use our weather pages